Home   Weather   Ripon   Past weeks
Flag for United Kingdom

Past Weather in Ripon, England, United Kingdom — Yesterday and Last 2 Weeks

Now
48 °F

Partly cloudy.


Feels Like: 43 °F
Forecast: 51 / 39 °F
Wind: 14 mph from Northwest

Location: Topcliffe Royal Air Force Base

Current Time: Oct 20, 2019 at 2:09:16 am

Latest Report: Oct 20, 2019 at 12:50 am


Visibility: N/A

Pressure: 29.68 "Hg

Humidity: 82%

Dew Point: 43 °F

Location of RiponLocation

Past Weather in Ripon — Graph

°F

Ripon Temperature Yesterday

Maximum temperature yesterday: 54 °F (at 12:50 pm)
Minimum temperature yesterday: 45 °F (at 4:50 am)
Average temperature yesterday: 49 °F

High & Low Weather Summary for the Past Weeks

 TemperatureHumidityPressure
High59 °F (Oct 11, 1:50 pm)100% (Oct 5, 12:50 am)30.04 "Hg (Oct 5, 12:50 am)
Low36 °F (Oct 17, 6:50 am)59% (Oct 11, 3:50 pm)29.36 "Hg (Oct 18, 5:50 am)
Average51 °F90%29.62 "Hg
* Reported Oct 4 11:50 pm — Oct 19 11:50 pm, Ripon. Weather by CustomWeather, © 2019

Note: Actual official high and low records may vary slightly from our data, if they occured in-between our weather recording intervals... More about our weather records

Advertising

Ripon Weather History for the Previous 24 Hours

Scroll right to see more
 ConditionsComfort  
Time TempWeatherWind HumidityBarometerVisibility
11:50 pm
Sat, Oct 19
48 °FPassing clouds.13 mph82%29.65 "HgN/A
10:50 pm48 °FPartly cloudy.13 mph87%29.65 "HgN/A
9:50 pm48 °FPassing clouds.12 mph87%29.62 "HgN/A
8:50 pm48 °FLight rain. Passing clouds.12 mph87%29.59 "HgN/A
7:50 pm48 °FLight rain. Passing clouds.14 mph87%29.56 "HgN/A
6:50 pm48 °FLight rain. Passing clouds.10 mph94%29.56 "HgN/A
5:50 pm48 °FFog.10 mph94%29.53 "Hg6 mi
4:50 pm50 °FPartly sunny.13 mph94%29.50 "HgN/A
3:50 pm54 °FPartly sunny.8 mph77%29.47 "HgN/A
2:50 pm54 °FPartly sunny.7 mph77%29.47 "HgN/A
1:50 pm54 °FPartly sunny.6 mph82%29.45 "HgN/A
12:50 pm54 °FBroken clouds.5 mph82%29.45 "HgN/A
11:50 am52 °FPartly sunny.5 mph88%29.45 "Hg4 mi
10:50 am50 °FFog.6 mph94%29.42 "Hg4 mi
9:50 am48 °FLight rain. Broken clouds.6 mph100%29.42 "Hg2 mi
8:50 am48 °FFog.6 mph100%29.42 "Hg2 mi
7:50 am46 °FFog.5 mph100%29.39 "Hg1 mi
6:50 am46 °FFog.1 mph100%29.39 "Hg2 mi
5:50 am46 °FFog.2 mph100%29.36 "Hg2 mi
4:50 am45 °FPassing clouds.3 mph100%29.36 "Hg1 mi
3:50 am46 °FFog.3 mph100%29.36 "Hg2 mi
2:50 am46 °FFog.1 mph100%29.36 "Hg5 mi
Weather by CustomWeather, © 2019

See weather overview